TimeCST,TemperatureF,Dew PointF,Humidity,Sea Level PressureIn,VisibilityMPH,Wind Direction,Wind SpeedMPH,Gust SpeedMPH,PrecipitationIn,Events,Conditions,WindDirDegrees,DateUTC
12:15 AM,17.6,12.2,79,30.18,10.0,SSW,11.5,-,N/A,,Overcast,200,2011-12-17 06:15:00
12:35 AM,17.6,12.2,79,30.17,10.0,SSW,11.5,-,N/A,,Overcast,200,2011-12-17 06:35:00
1:16 AM,15.8,12.2,86,30.15,10.0,SSW,11.5,-,N/A,,Mostly Cloudy,200,2011-12-17 07:16:00
1:35 AM,15.8,10.4,79,30.14,10.0,SSW,9.2,-,N/A,,Scattered Clouds,200,2011-12-17 07:35:00
1:55 AM,15.8,12.2,86,30.12,10.0,South,11.5,-,N/A,,Mostly Cloudy,190,2011-12-17 07:55:00
2:15 AM,15.8,12.2,86,30.11,10.0,South,11.5,-,N/A,,Overcast,190,2011-12-17 08:15:00
2:35 AM,15.8,12.2,86,30.11,10.0,SSW,12.7,-,N/A,,Overcast,200,2011-12-17 08:35:00
2:55 AM,15.8,12.2,86,30.10,10.0,SSW,13.8,-,N/A,,Overcast,200,2011-12-17 08:55:00
3:16 AM,17.6,14.0,86,30.09,10.0,SSW,17.3,-,N/A,,Overcast,200,2011-12-17 09:16:00
3:35 AM,15.8,14.0,93,30.07,10.0,SSW,16.1,-,N/A,,Overcast,200,2011-12-17 09:35:00
3:55 AM,17.6,15.8,93,30.07,10.0,SSW,17.3,-,N/A,,Overcast,200,2011-12-17 09:55:00
4:15 AM,15.8,14.0,93,30.04,10.0,South,16.1,-,N/A,,Mostly Cloudy,190,2011-12-17 10:15:00
4:35 AM,15.8,14.0,93,30.03,10.0,South,18.4,-,N/A,,Scattered Clouds,190,2011-12-17 10:35:00
4:55 AM,15.8,14.0,93,30.01,10.0,South,18.4,23.0,N/A,,Clear,190,2011-12-17 10:55:00
5:15 AM,15.8,14.0,93,29.99,10.0,SSW,19.6,-,N/A,,Clear,200,2011-12-17 11:15:00
5:36 AM,15.8,14.0,93,30.01,10.0,SSW,13.8,19.6,N/A,,Scattered Clouds,210,2011-12-17 11:36:00
5:55 AM,15.8,15.8,100,30.03,10.0,SW,11.5,-,N/A,,Mostly Cloudy,220,2011-12-17 11:55:00
6:15 AM,17.6,15.8,93,30.03,10.0,SSW,13.8,-,N/A,,Overcast,210,2011-12-17 12:15:00
7:15 AM,17.6,15.8,93,30.00,10.0,SSW,11.5,-,N/A,,Mostly Cloudy,210,2011-12-17 13:15:00
7:35 AM,17.6,15.8,93,30.00,10.0,SW,9.2,-,N/A,,Overcast,220,2011-12-17 13:35:00
7:55 AM,19.4,17.6,93,30.00,10.0,SW,12.7,-,N/A,,Overcast,230,2011-12-17 13:55:00
8:15 AM,19.4,15.8,86,30.00,10.0,SW,15.0,-,N/A,,Overcast,220,2011-12-17 14:15:00
8:35 AM,17.6,15.8,93,29.99,10.0,SSW,11.5,17.3,N/A,,Scattered Clouds,210,2011-12-17 14:35:00
8:55 AM,17.6,15.8,93,30.00,10.0,SSW,9.2,-,N/A,,Clear,210,2011-12-17 14:55:00
9:15 AM,17.6,15.8,93,30.00,10.0,SSW,12.7,-,N/A,,Clear,210,2011-12-17 15:15:00
9:35 AM,19.4,17.6,93,30.00,10.0,SW,12.7,-,N/A,,Clear,220,2011-12-17 15:35:00
9:55 AM,19.4,17.6,93,30.01,10.0,SW,11.5,-,N/A,,Clear,230,2011-12-17 15:55:00
10:15 AM,21.2,17.6,86,30.01,10.0,SW,10.4,-,N/A,,Clear,230,2011-12-17 16:15:00
10:35 AM,23.0,17.6,80,30.01,10.0,SW,10.4,-,N/A,,Clear,230,2011-12-17 16:35:00
10:55 AM,24.8,19.4,80,30.02,10.0,West,9.2,-,N/A,,Clear,260,2011-12-17 16:55:00
11:15 AM,26.6,19.4,74,30.02,10.0,West,11.5,-,N/A,,Clear,270,2011-12-17 17:15:00
11:34 AM,26.6,17.6,69,30.02,10.0,West,11.5,17.3,N/A,,Clear,280,2011-12-17 17:34:00
11:55 AM,28.4,17.6,64,30.01,10.0,West,13.8,-,N/A,,Clear,280,2011-12-17 17:55:00
12:15 PM,28.4,17.6,64,30.01,10.0,West,13.8,19.6,N/A,,Clear,270,2011-12-17 18:15:00
12:35 PM,28.4,19.4,69,30.01,10.0,West,10.4,-,N/A,,Clear,280,2011-12-17 18:35:00
12:55 PM,30.2,19.4,64,30.02,10.0,West,11.5,-,N/A,,Clear,280,2011-12-17 18:55:00
1:15 PM,30.2,19.4,64,30.01,10.0,WNW,12.7,-,N/A,,Clear,290,2011-12-17 19:15:00
1:35 PM,30.2,19.4,64,30.01,10.0,West,11.5,-,N/A,,Clear,280,2011-12-17 19:35:00
1:55 PM,30.2,19.4,64,30.00,10.0,West,11.5,16.1,N/A,,Clear,280,2011-12-17 19:55:00
2:15 PM,30.2,19.4,64,30.01,10.0,Calm,Calm,-,N/A,,Clear,0,2011-12-17 20:15:00
2:35 PM,30.2,19.4,64,30.01,10.0,West,10.4,-,N/A,,Clear,280,2011-12-17 20:35:00
2:56 PM,30.2,19.4,64,30.01,10.0,Calm,Calm,-,N/A,,Clear,0,2011-12-17 20:56:00
3:35 PM,30.2,19.4,64,30.03,10.0,Calm,Calm,-,N/A,,Clear,0,2011-12-17 21:35:00
3:55 PM,30.2,17.6,60,30.04,10.0,Calm,Calm,-,N/A,,Clear,0,2011-12-17 21:55:00
4:15 PM,28.4,17.6,64,30.05,10.0,Calm,Calm,-,N/A,,Clear,0,2011-12-17 22:15:00
4:35 PM,24.8,15.8,69,30.05,10.0,Calm,Calm,-,N/A,,Clear,0,2011-12-17 22:35:00
4:55 PM,21.2,12.2,68,30.05,10.0,Calm,Calm,-,N/A,,Clear,0,2011-12-17 22:55:00
5:15 PM,19.4,12.2,74,30.05,10.0,Calm,Calm,-,N/A,,Clear,0,2011-12-17 23:15:00
5:35 PM,17.6,12.2,79,30.05,10.0,Calm,Calm,-,N/A,,Clear,0,2011-12-17 23:35:00
6:15 PM,15.8,10.4,79,30.05,10.0,Calm,Calm,-,N/A,,Clear,0,2011-12-18 00:15:00
6:35 PM,15.8,10.4,79,30.04,10.0,Calm,Calm,-,N/A,,Clear,0,2011-12-18 00:35:00
6:55 PM,12.2,10.4,92,30.03,10.0,Calm,Calm,-,N/A,,Clear,0,2011-12-18 00:55:00
7:15 PM,14.0,12.2,93,30.03,10.0,Calm,Calm,-,N/A,,Clear,0,2011-12-18 01:15:00
7:35 PM,15.8,12.2,86,30.03,10.0,Calm,Calm,-,N/A,,Clear,0,2011-12-18 01:35:00
7:55 PM,12.2,10.4,92,30.02,10.0,Calm,Calm,-,N/A,,Clear,0,2011-12-18 01:55:00
8:15 PM,12.2,10.4,92,30.01,10.0,South,5.8,-,N/A,,Clear,180,2011-12-18 02:15:00
8:35 PM,12.2,10.4,92,30.01,10.0,Calm,Calm,-,N/A,,Clear,0,2011-12-18 02:35:00
8:55 PM,12.2,10.4,92,30.02,10.0,Calm,Calm,-,N/A,,Clear,0,2011-12-18 02:55:00
9:16 PM,12.2,10.4,92,30.01,10.0,Calm,Calm,-,N/A,,Clear,0,2011-12-18 03:16:00
9:35 PM,12.2,8.6,85,30.01,10.0,Calm,Calm,-,N/A,,Clear,0,2011-12-18 03:35:00
9:55 PM,12.2,10.4,92,29.99,10.0,Calm,Calm,-,N/A,,Clear,0,2011-12-18 03:55:00
10:15 PM,14.0,12.2,93,29.98,10.0,Calm,Calm,-,N/A,,Clear,0,2011-12-18 04:15:00
10:35 PM,15.8,12.2,86,29.97,10.0,SSE,9.2,-,N/A,,Clear,160,2011-12-18 04:35:00
10:55 PM,15.8,12.2,86,29.96,10.0,Calm,Calm,-,N/A,,Clear,0,2011-12-18 04:55:00
11:16 PM,15.8,12.2,86,29.96,10.0,South,9.2,-,N/A,,Clear,180,2011-12-18 05:16:00
11:35 PM,15.8,12.2,86,29.95,10.0,South,6.9,-,N/A,,Clear,170,2011-12-18 05:35:00
11:55 PM,15.8,14.0,93,29.93,10.0,South,6.9,-,N/A,,Clear,170,2011-12-18 05:55:00